[[{"header":{"parameterUnit":"m.s-1","parameterCategory":1,"la1":30.2991,"la2":30.254,"lo1":-89.0895,"lo2":-89.0444,"dy":0.0017,"dx":0.0017,"nx":28,"ny":28,"refTime":"2024-07-21T21:00:00:Z","depth":0,"parameterNumber":2,"parameterNumberName":"U-component_of_WINDS"},"data":[0,0,0,0,0,0,0,0,0,0,0,0,0,0,0,0,0,0,0,0,0,0,0,0,0,0,0,0,0,0,0,0,0,0,0,0,0,0,0,0,0,0,0,0,0,0,0,0,0,0,0,0,0,0,0,0,0,0,1.2558,1.2559,0,1.2617,1.2617,1.2618,1.2628,1.2627,1.2627,1.2627,1.2684,1.2686,1.2688,0,0,0,0,0,0,0,0,0,0,0,0,0,1.2451,1.2453,1.2558,1.2559,1.256,1.2616,1.2617,1.2618,1.2628,1.2627,1.2627,1.2626,1.2683,1.2685,1.2688,0,0,0,0,0,0,0,0,0,0,0,0,0,1.2502,1.2454,1.2558,1.2572,1.2573,1.2616,1.2617,1.2618,1.2628,1.2627,1.2627,1.2626,1.2682,1.2685,1.2688,1.2721,0,0,1.2697,1.2699,0,0,0,0,0,0,0,0,1.25,1.2506,1.2569,1.2571,1.2573,1.2614,1.26,1.2653,1.2628,1.2607,1.2626,1.2626,1.2661,1.2666,1.2678,1.2724,1.2726,1.2697,1.2699,1.2701,1.2701,0,0,0,0,0,0,0,1.2496,1.2504,1.2581,1.257,1.2572,1.2573,1.258,1.261,1.2637,1.2609,1.261,1.2617,1.2662,1.2675,1.268,1.2727,1.2697,1.27,1.2702,1.2703,1.2798,1.2799,0,0,0,0,0,0,1.249,1.2501,1.2579,1.2583,1.2534,1.2576,1.2583,1.2602,1.2637,1.2642,1.2617,1.2617,1.2671,1.2676,1.2682,1.272,1.2701,1.2703,1.2705,1.2797,1.2798,1.2799,0,0,0,0,0,0,1.2488,1.2497,1.2577,1.2542,1.2552,1.2578,1.2599,1.2603,1.2617,1.2644,1.2648,1.2626,1.267,1.2677,1.271,1.2722,1.2705,1.2707,1.2796,1.2797,1.2798,1.2798,0,0,0,0,0,0,1.2485,1.2497,1.2511,1.2542,1.2554,1.2606,1.26,1.2605,1.2622,1.2622,1.2653,1.2657,1.267,1.2706,1.2713,1.2726,1.271,1.2795,1.2797,1.2798,1.2797,1.2799,1.2801,0,0,0,0,0,1.2481,1.2509,1.2511,1.2521,1.2573,1.2607,1.2614,1.2629,1.2623,1.2636,1.2653,1.2656,1.272,1.2709,1.2718,1.2731,1.2795,1.2796,1.2798,1.2796,1.2799,1.2801,0,0,0,0,0,0,1.2478,1.2513,1.2517,1.2555,1.2578,1.2609,1.2626,1.2631,1.2655,1.2654,1.2671,1.2678,1.2709,1.2724,1.2711,1.2763,1.2756,1.276,1.2752,1.2755,1.2757,1.2752,1.2712,0,0,0,0,0,1.2481,1.2508,1.2537,1.2568,1.2579,1.2601,1.2616,1.2625,1.2649,1.2659,1.2678,1.27,1.2725,1.2741,1.2765,1.2799,1.2805,1.2812,1.2814,1.2815,1.2818,1.2834,1.2837,1.2804,1.2804,1.2804,0,0,1.249,1.2512,1.2528,1.2568,1.2586,1.2611,1.2609,1.2636,1.2654,1.2663,1.2695,1.2709,1.2735,1.2767,1.2783,1.278,1.2828,1.2818,1.2818,1.282,1.2836,1.2839,1.2842,1.2805,1.2805,1.2805,0,0,1.2517,1.2537,1.2564,1.2582,1.261,1.2624,1.263,1.2659,1.2669,1.2702,1.2708,1.2728,1.2771,1.2788,1.2802,1.2832,1.2835,1.2839,1.2848,1.2864,1.2866,1.2869,1.2877,1.288,1.2842,1.2842,1.2842,0,1.2523,1.2562,1.2577,1.2603,1.2619,1.2628,1.2654,1.2671,1.2705,1.2715,1.2712,1.2763,1.2781,1.2817,1.2823,1.2835,1.2841,1.2836,1.2865,1.2867,1.287,1.2878,1.2881,1.2842,1.2842,1.2842,1.2842,0,1.2567,1.2593,1.2611,1.2644,1.2662,1.2688,1.2705,1.2721,1.2728,1.2741,1.2772,1.2793,1.282,1.2829,1.2837,1.2865,1.2862,1.2862,1.2856,1.2873,1.288,1.2884,1.2842,1.2842,1.2842,1.2842,0,0,1.2595,1.2633,1.264,1.2653,1.2683,1.2703,1.2728,1.2754,1.2767,1.2789,1.2809,1.2843,1.2842,1.2858,1.2867,1.288,1.2899,1.2878,1.2879,1.288,1.2929,1.2928,1.2932,1.2901,1.2902,1.2903,1.2926,0,1.2624,1.267,1.2683,1.272,1.2743,1.275,1.2771,1.2791,1.2803,1.2823,1.2836,1.2859,1.2857,1.2866,1.288,1.2894,1.2909,1.2893,1.2918,1.2919,1.2911,1.2936,1.2937,1.2958,1.2929,1.293,1.293,0,1.2665,1.2687,1.2727,1.2751,1.2761,1.2781,1.2804,1.2824,1.2845,1.2853,1.2869,1.2876,1.2899,1.2892,1.2923,1.2912,1.2922,1.293,1.2932,1.2934,1.2925,1.2938,1.2965,1.2968,1.2936,1.2935,1.2935,0,1.2679,1.2719,1.2747,1.2759,1.2788,1.2801,1.2813,1.2834,1.2848,1.2868,1.2877,1.29,1.2912,1.2929,1.294,1.2934,1.297,1.2964,1.2975,1.2975,1.2983,1.2982,1.301,1.2991,1.2991,1.2991,1.2991,0,1.2709,1.2733,1.2753,1.2771,1.2796,1.281,1.2834,1.2847,1.2864,1.2883,1.289,1.2907,1.2922,1.294,1.2949,1.2972,1.2978,1.2984,1.2986,1.2983,1.2982,1.299,1.2988,1.2992,1.2992,1.2991,1.2991,0,1.2729,1.2744,1.2775,1.28,1.2806,1.2824,1.2844,1.286,1.2871,1.2894,1.29,1.2918,1.2939,1.2953,1.298,1.2986,1.3011,1.3013,1.3004,1.3005,1.3015,1.3013,1.3049,1.3054,1.3032,1.3032,1.3032,0,1.2747,1.2766,1.2791,1.2804,1.2817,1.2838,1.2852,1.2865,1.2879,1.2903,1.2915,1.2937,1.2955,1.2989,1.3003,1.3023,1.3025,1.3036,1.3028,1.3023,1.3023,1.3022,1.3022,1.3037,1.3037,1.3037,1.3038,0,1.2777,1.2783,1.2804,1.2826,1.2842,1.286,1.2878,1.2888,1.2904,1.2919,1.2941,1.2955,1.2982,1.3002,1.3023,1.3035,1.3038,1.304,1.3043,1.304,1.3033,1.3035,1.3007,1.3039,1.3039,1.3039,1.3039,1.3039,1.2796,1.2811,1.2831,1.2853,1.2867,1.2883,1.2899,1.2911,1.293,1.2953,1.2959,1.2982,1.2999,1.3028,1.3039,1.3055,1.3054,1.3059,1.306,1.3061,1.3061,1.3031,1.3059,1.3059,1.3059,1.3059,1.3059,0,1.2824,1.2837,1.2857,1.2881,1.2897,1.2899,1.2918,1.2932,1.2951,1.2968,1.2985,1.3009,1.3028,1.3043,1.3063,1.3073,1.3075,1.3077,1.3077,1.3079,1.3062,1.3056,1.3076,1.3076,1.3076,1.3076,1.3075,1.3075,1.2841,1.2866,1.2874,1.2905,1.2918,1.294,1.295,1.2964,1.2977,1.3003,1.302,1.3029,1.3044,1.3065,1.3082,1.3085,1.3092,1.3094,1.3098,1.3082,1.308,1.3078,1.3073,1.3096,1.3096,1.3113,1.3113,1.3113]},{"header":{"parameterUnit":"m.s-1","parameterCategory":1,"la1":30.2991,"la2":30.254,"lo1":-89.0895,"lo2":-89.0444,"dy":0.0017,"dx":0.0017,"nx":28,"ny":28,"refTime":"2024-07-21T21:00:00:Z","depth":0,"parameterNumber":3,"parameterNumberName":"V-component_of_WINDS"},"data":[0,0,0,0,0,0,0,0,0,0,0,0,0,0,0,0,0,0,0,0,0,0,0,0,0,0,0,0,0,0,0,0,0,0,0,0,0,0,0,0,0,0,0,0,0,0,0,0,0,0,0,0,0,0,0,0,0,0,4.8454,4.8455,0,4.8566,4.8567,4.8568,4.8557,4.8555,4.8553,4.8552,4.8659,4.8664,4.8668,0,0,0,0,0,0,0,0,0,0,0,0,0,4.8221,4.8226,4.8454,4.8455,4.8457,4.8566,4.8567,4.8569,4.8557,4.8555,4.8553,4.8551,4.8658,4.8663,4.8668,0,0,0,0,0,0,0,0,0,0,0,0,0,4.8327,4.8227,4.8454,4.8464,4.8466,4.8565,4.8567,4.8569,4.8557,4.8555,4.8552,4.855,4.8656,4.8662,4.8669,4.8763,0,0,4.869,4.8693,0,0,0,0,0,0,0,0,4.8321,4.8335,4.8461,4.8464,4.8466,4.8545,4.8525,4.8634,4.8558,4.8523,4.8552,4.8548,4.8623,4.8632,4.8659,4.8768,4.8772,4.869,4.8694,4.8697,4.8699,0,0,0,0,0,0,0,4.8313,4.833,4.8498,4.8463,4.8466,4.846,4.8472,4.8545,4.8586,4.8525,4.8525,4.8539,4.8624,4.8652,4.8661,4.8774,4.869,4.8696,4.87,4.8703,4.8962,4.8964,0,0,0,0,0,0,4.8305,4.8324,4.8494,4.8501,4.8386,4.8467,4.848,4.8522,4.8585,4.8592,4.8541,4.8538,4.8642,4.8653,4.8665,4.8776,4.8697,4.8704,4.8707,4.8959,4.8962,4.8965,0,0,0,0,0,0,4.83,4.832,4.849,4.8413,4.8434,4.8474,4.8521,4.8526,4.8554,4.8597,4.8603,4.8563,4.864,4.8655,4.8738,4.878,4.8707,4.8713,4.8956,4.896,4.8964,4.9001,0,0,0,0,0,0,4.8293,4.8318,4.8357,4.8414,4.8438,4.8564,4.8523,4.853,4.8567,4.8564,4.8619,4.8626,4.8639,4.8728,4.8745,4.8788,4.8718,4.8952,4.8958,4.8963,4.8996,4.9006,4.9014,0,0,0,0,0,4.8285,4.8362,4.8359,4.8379,4.8487,4.8567,4.858,4.8596,4.857,4.8607,4.8634,4.8624,4.8773,4.8737,4.8755,4.8801,4.8949,4.8956,4.8962,4.8992,4.9004,4.9014,0,0,0,0,0,0,4.8307,4.837,4.8367,4.8465,4.8511,4.8565,4.8612,4.8609,4.8661,4.8656,4.8672,4.8684,4.8767,4.8792,4.8751,4.8893,4.8857,4.8867,4.8873,4.8885,4.8894,4.8885,4.8724,0,0,0,0,0,4.8323,4.8385,4.8436,4.8517,4.8541,4.8572,4.8608,4.8616,4.8663,4.8682,4.8715,4.8759,4.8815,4.8852,4.8906,4.9,4.901,4.904,4.9049,4.9056,4.9064,4.9112,4.9125,4.8986,4.8986,4.8986,0,0,4.8357,4.8399,4.8437,4.8523,4.8559,4.862,4.8589,4.8655,4.8699,4.8691,4.8771,4.8797,4.8846,4.8935,4.8975,4.8958,4.9105,4.9064,4.907,4.9074,4.912,4.9133,4.9145,4.8991,4.899,4.8989,0,0,4.845,4.849,4.8561,4.8598,4.8654,4.8674,4.8691,4.8745,4.8762,4.8844,4.8838,4.8889,4.8987,4.9022,4.9052,4.9156,4.9147,4.9173,4.922,4.9266,4.9277,4.9287,4.9321,4.9333,4.9181,4.9182,4.9182,0,4.8485,4.8579,4.8597,4.8664,4.8699,4.8697,4.8767,4.8801,4.8871,4.8895,4.8875,4.8996,4.903,4.9124,4.9149,4.9175,4.9192,4.9166,4.9275,4.9285,4.9294,4.9326,4.9339,4.9184,4.9184,4.9184,4.9183,0,4.8617,4.8682,4.8732,4.8801,4.8843,4.891,4.8936,4.8975,4.898,4.9001,4.9081,4.9122,4.9183,4.9206,4.921,4.93,4.9288,4.9272,4.9236,4.9309,4.934,4.9353,4.9188,4.9187,4.9186,4.9185,0,0,4.8727,4.8804,4.8822,4.8852,4.8913,4.8962,4.9028,4.9089,4.9121,4.9169,4.9223,4.9304,4.9289,4.9324,4.9332,4.9373,4.9449,4.9351,4.9353,4.9366,4.9546,4.9556,4.9571,4.9444,4.9447,4.9449,4.9541,0,4.8823,4.8943,4.896,4.9064,4.9122,4.9119,4.9176,4.9218,4.9239,4.9289,4.9311,4.9368,4.9345,4.9366,4.9407,4.9431,4.9485,4.9425,4.9491,4.9493,4.9476,4.9587,4.9599,4.9684,4.9554,4.9556,4.9557,0,4.8953,4.9005,4.9115,4.9166,4.9191,4.9242,4.9298,4.9347,4.9393,4.9405,4.9443,4.9445,4.951,4.9472,4.956,4.9519,4.9546,4.9562,4.9566,4.9571,4.9528,4.9593,4.9713,4.9724,4.9577,4.9575,4.9574,0,4.9018,4.9116,4.9194,4.922,4.9282,4.9317,4.9344,4.9387,4.9422,4.9471,4.9493,4.9547,4.9576,4.9617,4.9633,4.9605,4.9718,4.9683,4.9727,4.9727,4.975,4.9748,4.9873,4.9772,4.9772,4.9771,4.9771,0,4.9123,4.919,4.9224,4.9272,4.9345,4.9363,4.9434,4.9459,4.9498,4.9547,4.9548,4.9594,4.9614,4.9662,4.9675,4.9743,4.9757,4.9766,4.9768,4.9765,4.9763,4.9782,4.9775,4.9775,4.9774,4.9773,4.9773,0,4.9208,4.9234,4.9319,4.937,4.9384,4.9436,4.9478,4.9522,4.9543,4.9606,4.9621,4.9653,4.9709,4.973,4.9798,4.9807,4.9885,4.9884,4.987,4.987,4.9912,4.9907,5.0052,5.0071,4.9959,4.996,4.9961,0,4.9273,4.9324,4.9381,4.9415,4.9444,4.9499,4.9535,4.9553,4.959,4.9644,4.9681,4.9738,4.9785,4.9875,4.9902,4.9954,4.9951,4.9999,4.9959,4.9953,4.9949,4.9945,4.9948,5.0005,5.0006,5.0007,5.0008,0,4.9383,4.9393,4.9446,4.9502,4.9545,4.959,4.9634,4.9661,4.9685,4.9726,4.9785,4.9821,4.9891,4.9946,4.9999,5.0023,5.0019,5.0021,5.0033,5.0029,5.0018,5.0022,4.9888,5.0017,5.0016,5.0015,5.0015,5.0015,4.9458,4.9502,4.9549,4.9606,4.9641,4.9681,4.9725,4.9751,4.9801,4.9861,4.9868,4.993,4.9971,5.0042,5.0069,5.0116,5.0102,5.0121,5.0125,5.0129,5.0131,5.0013,5.0125,5.0125,5.0125,5.0125,5.0125,0,4.9566,4.9595,4.9649,4.971,4.9754,4.9749,4.9795,4.9832,4.9888,4.9928,4.9973,5.0039,5.0092,5.0123,5.0176,5.0207,5.0206,5.022,5.0217,5.0222,5.0141,5.0124,5.022,5.022,5.022,5.022,5.022,5.022,4.9627,4.9701,4.9716,4.9806,4.9834,4.9897,4.9924,4.9959,4.9991,5.0065,5.011,5.0131,5.0166,5.0221,5.0268,5.0275,5.0293,5.0308,5.0314,5.0238,5.0228,5.0218,5.0202,5.0312,5.0313,5.039,5.039,5.0391]}]]